Theta_e
315 317 319 317 315 314 313 314 313 313 313 313 313 315 316 314 312 313 312 313 314 313 313 314 313 313 313 312 312 312 312 313 312 311 311 310 310 310 310 310 310 310 311 310 308 308 307 307 307 306 306 305 305 305 304 304 303 302 301 300 300 299 299 299 299 298 298 298 298 298 298 298 297 297 297 297 297 296 295 295 294 292 291 291 291 292
313 315 317 316 314 313 314 314 313 313 313 313 314 314 314 313 313 312 312 313 312 312 313 314 314 313 312 312 312 313 313 313 313 312 312 311 310 310 310 310 311 311 312 312 310 308 306 306 306 305 305 305 304 305 304 304 303 302 301 300 300 299 299 299 299 299 298 298 298 298 298 297 297 297 297 297 296 296 295 295 294 292 291 291 291 291
315 315 314 313 313 313 313 315 314 313 313 314 314 314 314 313 313 312 313 314 312 313 315 315 314 312 312 312 311 312 312 312 313 313 312 312 311 311 310 311 310 311 312 311 312 310 305 303 304 304 303 304 305 304 304 303 302 301 300 300 299 299 299 299 299 299 299 299 298 298 298 297 297 297 297 296 296 295 295 295 295 293 291 290 291 291
318 318 315 312 313 313 313 314 314 313 313 314 314 314 314 313 313 314 315 317 314 312 316 316 313 311 311 312 312 311 312 312 312 312 312 312 312 312 311 312 311 312 312 311 311 311 307 303 302 302 303 303 304 304 302 302 301 300 300 299 299 299 299 299 299 299 299 298 298 297 297 297 297 296 296 296 295 295 295 295 295 294 292 290 290 291
315 318 318 314 313 313 314 314 314 314 314 314 315 314 314 314 314 313 313 315 314 312 315 314 312 313 313 313 312 311 311 311 311 311 311 311 311 312 312 312 313 313 313 312 311 311 311 309 303 301 302 302 302 303 302 301 301 300 300 299 299 299 298 299 299 298 298 297 297 296 296 296 295 295 295 295 294 295 295 295 295 294 293 292 290 290
312 316 317 315 316 316 315 314 316 318 315 313 316 315 314 313 313 313 313 313 314 315 315 316 315 315 316 317 315 313 313 313 313 312 312 312 312 312 312 312 312 312 312 312 311 310 312 311 303 300 301 301 301 302 302 302 301 300 299 299 299 298 298 298 298 298 297 297 296 296 295 295 294 294 294 294 294 294 294 295 294 294 293 293 291 290
312 315 315 316 319 319 316 316 318 318 314 313 319 320 315 313 314 314 314 314 317 318 316 317 318 316 317 317 317 316 316 316 315 313 313 312 312 312 312 312 312 312 311 311 311 311 311 310 306 302 300 300 301 302 302 301 300 300 299 298 298 298 298 298 298 297 297 297 296 296 296 295 294 294 294 294 294 294 294 294 294 294 293 293 292 290
313 313 315 316 317 319 318 317 317 317 314 314 320 324 321 317 317 317 316 317 320 317 316 319 319 318 316 316 318 318 316 316 315 314 313 312 311 311 311 311 311 311 311 311 313 312 310 309 307 303 300 300 301 301 301 300 300 299 299 298 298 298 298 297 297 297 297 297 296 296 296 295 295 295 294 294 294 294 294 294 294 294 293 293 292 291
315 314 316 316 315 317 317 315 317 316 314 316 319 321 322 320 319 318 317 321 321 317 317 319 318 319 317 316 319 316 314 316 314 314 313 312 312 311 311 311 311 311 311 312 313 312 311 307 303 301 300 300 301 300 301 300 299 299 298 298 298 297 297 297 297 297 297 297 297 296 296 295 295 295 294 294 293 293 293 293 293 293 293 293 292 291
314 315 316 317 316 315 314 315 320 317 314 318 318 319 325 328 326 322 318 319 321 319 319 320 317 317 317 316 317 313 313 315 313 313 313 311 313 312 311 311 311 311 311 313 314 311 308 304 301 301 300 299 300 300 300 299 299 298 298 297 297 297 297 297 297 297 297 297 296 296 296 295 295 294 294 293 293 293 293 293 292 292 292 292 292 291
311 311 313 316 316 315 315 317 318 318 317 317 316 317 327 330 327 328 326 320 319 319 320 322 319 316 316 318 318 315 315 315 312 312 313 312 312 311 311 311 311 311 311 315 315 309 305 300 299 300 299 299 299 299 299 299 298 298 297 297 297 297 297 296 297 297 297 297 296 296 296 295 295 294 293 293 292 292 292 292 292 291 291 291 291 291
310 310 313 318 319 318 316 315 314 316 316 316 318 319 322 325 325 328 327 320 317 318 320 323 320 316 316 316 317 316 316 316 314 314 315 315 315 313 313 312 311 310 311 317 316 309 305 302 300 299 297 297 298 297 298 298 297 297 297 297 296 296 296 296 296 297 296 296 296 296 296 295 295 294 293 293 292 292 291 291 291 291 291 291 291 290
314 312 312 314 317 318 316 316 318 318 315 315 320 320 318 321 322 322 322 321 320 320 321 321 317 314 315 316 316 316 316 316 315 314 315 317 318 316 314 313 312 312 314 319 318 310 306 304 302 300 296 295 296 296 297 297 297 297 296 296 296 296 296 296 296 296 296 296 296 296 295 295 294 294 293 293 292 292 291 291 291 290 290 290 290 290
319 317 313 311 313 316 315 315 317 318 317 316 318 320 319 320 320 319 322 323 320 320 321 318 315 316 318 320 319 315 315 317 315 314 315 314 315 315 313 312 313 316 317 318 317 312 306 303 302 300 295 294 295 295 296 296 296 296 296 296 296 296 296 296 296 296 295 296 296 295 295 295 294 294 293 293 292 292 291 291 291 290 290 290 290 290
318 317 315 313 315 317 314 313 313 316 319 316 316 320 319 321 324 323 323 321 317 321 322 315 317 323 321 319 321 319 318 320 317 316 315 314 314 314 313 312 312 317 320 317 314 309 303 301 300 298 295 294 295 295 295 296 296 296 296 296 296 296 296 295 295 295 296 295 295 295 295 294 294 294 293 293 292 292 291 291 291 291 290 290 290 291
317 318 318 314 315 316 314 313 312 313 318 317 317 318 315 317 322 319 319 320 316 319 321 316 321 328 320 314 317 320 319 319 317 316 315 315 315 313 313 313 312 318 323 319 312 306 301 301 300 296 294 294 294 295 295 295 295 296 296 296 296 296 296 295 295 295 295 295 295 295 295 294 294 294 293 293 292 292 292 291 291 291 291 291 290 290
315 318 322 315 315 317 316 314 311 312 317 315 316 318 315 316 318 315 317 319 315 315 317 316 319 322 318 314 317 319 320 319 316 314 312 312 313 312 313 314 313 320 327 318 307 303 301 301 299 295 293 294 294 294 295 295 296 296 296 296 296 296 296 295 295 295 295 295 294 295 295 294 294 294 293 293 292 292 291 291 291 291 291 290 290 290
315 315 317 316 316 316 314 313 313 315 316 316 318 318 315 316 316 316 318 317 316 317 316 315 316 316 315 319 323 322 321 320 316 314 313 312 312 313 314 316 319 323 321 311 304 302 301 301 299 295 293 294 294 295 295 295 296 296 296 296 295 295 296 295 295 295 294 294 294 294 294 294 294 294 293 293 292 292 291 291 291 291 290 290 290 289
316 313 315 317 318 315 313 313 314 314 313 316 319 317 317 319 319 318 319 317 316 317 317 316 317 314 314 321 323 317 318 319 316 316 316 314 313 315 315 319 324 321 314 309 308 306 303 302 299 294 292 294 294 294 295 295 295 296 296 296 296 296 296 296 295 294 294 294 294 294 294 294 294 294 293 293 292 291 291 291 291 290 290 290 290 289
315 314 315 317 317 315 313 314 318 318 313 312 313 314 316 319 319 319 319 318 317 317 318 318 317 316 319 326 323 314 315 316 315 317 319 316 316 317 318 323 328 326 320 317 314 311 307 305 300 294 292 294 294 294 295 295 295 296 296 296 296 296 296 295 295 295 295 294 294 294 294 294 294 293 293 292 292 291 291 291 291 290 290 290 289 289
316 317 316 316 317 315 314 317 322 322 317 314 314 314 313 314 317 318 316 316 318 317 317 319 318 318 320 324 320 314 315 315 313 315 318 319 319 316 318 325 332 336 335 328 321 316 312 308 300 294 293 294 294 294 294 295 295 295 295 296 296 296 295 295 295 295 295 295 294 294 293 293 293 293 292 292 291 291 291 291 290 290 290 289 289 289
317 318 317 316 318 316 315 319 320 318 317 317 315 315 315 314 316 318 316 317 318 316 317 318 318 320 320 318 315 314 315 313 313 314 314 318 321 317 316 323 331 337 338 335 330 325 322 316 304 295 294 294 294 294 294 294 295 295 295 296 296 295 295 295 295 295 295 295 294 294 294 293 293 292 292 291 291 291 291 290 290 290 289 289 289 289
317 317 317 316 316 317 317 318 317 315 315 315 315 317 319 316 315 316 317 318 318 317 317 317 317 319 318 316 314 314 314 313 313 314 313 315 318 317 317 321 328 332 333 332 330 326 323 315 304 296 295 295 294 294 294 294 294 295 295 296 295 295 295 295 296 295 295 294 293 294 293 293 292 292 291 291 291 291 290 290 290 289 289 289 289 288
319 318 319 318 318 319 319 319 318 316 314 313 313 316 317 316 315 316 316 316 317 317 316 317 317 318 317 317 315 313 314 313 313 312 312 314 315 317 318 318 319 322 322 321 320 317 312 308 303 302 302 298 295 295 295 294 295 295 295 295 295 295 296 296 296 295 294 294 293 293 293 292 292 291 291 291 291 290 290 290 289 289 289 289 288 288
320 319 320 320 319 320 321 321 320 317 314 314 315 317 315 314 315 316 315 315 316 316 315 317 317 317 317 316 314 313 313 312 312 312 312 313 315 316 316 316 314 314 314 315 314 312 311 310 308 307 306 300 296 296 296 295 295 295 295 295 295 296 296 296 295 294 294 293 293 292 292 292 291 291 291 291 290 290 290 290 289 289 289 288 288 288
319 320 321 320 320 321 320 320 320 319 318 316 317 319 317 316 316 315 315 315 315 315 315 316 316 315 314 314 313 313 313 312 312 312 311 313 315 315 314 315 315 314 313 313 312 311 311 313 314 313 310 302 297 298 298 297 296 295 295 296 296 296 296 295 295 294 294 293 293 292 292 291 291 291 291 290 290 290 290 289 289 288 288 288 288 287
316 318 320 319 320 320 319 319 320 320 320 318 317 318 317 317 316 314 315 315 314 315 315 315 315 315 314 314 313 312 312 312 312 312 312 312 313 313 313 313 313 314 313 312 312 311 311 314 317 320 316 306 299 299 300 298 297 296 295 296 296 297 296 295 295 294 294 293 292 292 292 291 291 291 291 290 290 290 289 289 288 288 287 287 287 287
314 316 318 318 318 318 318 318 318 318 318 317 317 317 316 316 316 316 316 315 314 316 316 315 315 315 314 313 313 312 312 312 312 311 312 311 312 312 312 312 312 312 312 311 311 311 311 313 315 316 316 309 301 299 299 298 298 297 297 297 297 296 296 295 295 294 293 293 292 292 292 292 292 291 290 290 289 289 288 288 287 287 287 287 287 286
316 316 317 317 317 317 317 317 317 317 317 316 316 316 316 316 316 317 317 315 316 317 316 315 315 315 314 312 312 312 312 312 312 311 311 311 311 312 311 311 311 311 311 311 311 311 311 310 311 311 311 309 303 299 299 298 298 298 297 298 297 296 296 295 295 294 293 292 292 292 292 292 291 290 290 289 288 288 288 287 287 286 286 286 286 286
315 316 317 316 316 316 316 316 316 316 316 316 316 316 315 316 316 316 316 315 315 316 315 315 315 315 314 312 312 312 311 312 311 311 311 312 312 312 312 311 310 310 310 309 309 309 309 308 308 308 308 308 308 305 300 298 299 298 298 298 297 296 296 295 294 294 293 292 292 293 292 291 290 290 289 288 288 287 287 286 286 286 285 285 285 285
314 316 316 317 317 316 316 315 315 316 315 315 316 315 315 315 315 315 315 315 315 315 315 315 315 315 313 313 313 312 312 312 312 312 312 312 311 311 310 308 307 306 305 305 304 305 305 306 307 307 307 308 308 306 301 300 301 300 298 298 297 296 295 294 294 293 293 292 293 292 291 291 290 289 288 288 287 287 286 286 285 285 285 284 284 284
312 314 314 316 318 318 317 316 315 314 314 314 315 314 315 315 314 314 314 314 315 315 315 315 315 315 313 312 313 313 312 312 312 312 311 310 308 306 304 303 302 302 302 302 301 301 302 303 304 304 306 306 306 304 302 302 301 299 298 298 297 297 295 294 293 293 292 292 292 291 291 290 289 288 287 287 286 286 285 285 284 284 284 284 283 283
310 311 313 314 315 316 316 316 315 315 316 316 316 315 314 313 314 314 313 314 314 315 315 315 314 312 309 308 308 308 308 309 310 308 306 303 301 300 300 301 300 300 301 301 301 300 300 300 300 301 302 303 303 303 304 304 302 300 299 299 298 296 295 293 293 292 292 292 291 291 290 289 288 287 286 286 285 285 284 284 284 283 283 283 283 282
309 310 311 312 313 313 314 315 315 316 317 318 319 317 314 314 315 314 314 314 313 311 310 310 308 304 302 301 301 301 301 303 304 302 299 299 299 298 298 298 298 299 299 299 300 299 299 299 298 298 298 299 300 301 303 304 302 301 301 299 297 295 294 293 292 292 292 291 290 290 289 288 287 286 286 285 285 284 284 283 283 283 282 282 282 281
308 309 309 309 311 312 312 313 315 315 315 317 317 312 309 310 310 311 313 311 304 300 301 302 301 299 298 299 298 297 297 299 301 300 298 298 298 296 296 296 296 297 297 298 298 298 298 299 298 297 297 297 298 299 300 301 301 301 300 298 296 295 294 293 292 291 291 290 290 289 288 287 286 286 285 284 284 283 283 282 282 282 281 281 281 281
307 308 308 309 310 310 310 311 313 313 314 316 311 303 300 301 300 302 308 305 295 294 298 299 297 297 296 297 297 295 294 296 300 300 298 296 296 296 296 296 295 296 296 297 297 297 298 298 297 296 296 296 296 296 296 296 297 299 299 297 295 294 293 292 291 291 290 290 289 288 287 287 286 285 284 283 283 282 282 281 281 281 281 281 280 280
308 308 309 309 310 311 311 311 310 311 313 311 304 298 297 297 296 298 304 300 293 293 297 296 296 296 295 295 295 294 293 295 298 299 296 295 296 296 296 295 295 295 296 296 296 297 297 297 297 297 296 296 296 294 293 293 294 295 296 294 293 292 291 291 290 290 289 289 288 288 287 286 285 284 283 283 282 281 281 281 281 280 280 280 279 279
305 307 307 308 310 310 311 310 310 312 311 302 296 295 296 295 294 296 302 300 294 293 295 295 295 295 294 294 294 294 294 294 295 295 294 294 296 296 295 295 294 295 295 295 295 296 296 297 297 297 297 297 296 295 294 293 293 294 293 292 291 291 290 290 289 289 289 288 288 287 286 285 285 284 283 282 281 281 281 280 280 279 279 279 279 278
299 303 304 304 305 305 306 306 306 309 306 297 294 295 295 293 294 298 304 302 294 292 294 295 294 294 294 294 294 293 293 293 293 293 294 295 296 295 294 294 294 294 294 295 295 295 296 297 297 297 297 296 297 296 295 294 294 294 292 291 290 290 289 289 289 289 289 288 287 287 286 285 284 283 282 281 281 280 280 280 279 279 279 279 278 278
298 301 301 300 300 300 302 302 302 305 301 293 293 294 293 293 297 301 306 302 293 292 294 293 292 293 293 293 293 292 292 293 293 293 294 295 295 294 294 294 293 294 294 294 295 295 296 296 296 295 296 296 296 297 295 294 294 293 292 290 290 289 289 289 289 289 288 288 287 286 285 284 284 283 282 281 280 280 279 279 278 278 278 278 277 277
298 299 299 298 298 299 299 299 299 301 298 292 292 293 292 294 297 298 299 296 292 292 293 292 291 292 292 292 292 291 292 293 293 293 294 294 293 293 293 293 293 293 294 294 294 295 295 295 295 295 295 296 296 297 296 294 293 293 292 291 290 290 290 289 289 288 288 287 287 286 285 284 283 283 281 281 280 279 279 278 278 277 277 277 276 276
295 296 297 297 297 296 296 295 295 297 297 292 291 292 292 294 294 293 294 294 293 292 292 291 291 291 291 291 291 291 292 292 292 293 293 292 292 291 292 292 292 293 293 293 294 294 294 294 294 294 294 295 295 296 296 293 292 293 292 290 290 292 291 289 289 288 288 287 286 285 284 283 283 282 281 280 280 279 278 277 277 277 276 276 275 275
292 293 293 293 293 293 293 292 292 294 295 292 290 291 292 293 292 292 293 294 292 291 291 290 290 290 290 290 290 290 290 290 290 291 290 290 290 290 290 291 292 293 293 293 293 293 293 293 293 293 294 294 294 295 295 292 290 291 291 289 291 291 289 288 288 287 287 286 285 284 283 282 282 281 280 279 279 278 277 276 275 275 275 275 274 274
291 291 290 291 293 292 292 292 293 293 292 291 290 290 291 292 292 293 292 291 290 290 290 289 288 288 289 289 288 289 289 288 289 288 288 288 288 288 289 290 291 291 292 292 292 292 292 292 293 293 293 293 293 294 295 292 290 289 289 291 292 291 289 288 288 286 286 285 284 283 282 281 281 280 279 279 278 277 276 275 275 274 274 274 274 273
291 292 291 291 292 292 291 292 292 291 290 289 289 290 292 293 293 291 290 289 289 288 289 288 287 287 287 288 287 287 287 287 287 286 286 286 286 287 288 288 289 289 290 290 290 291 291 291 292 292 292 293 293 293 294 293 290 288 289 291 292 291 290 288 287 286 285 284 282 281 281 280 279 279 278 278 277 277 275 274 274 273 273 273 273 272
291 291 290 290 290 290 290 290 290 289 289 288 288 291 294 294 291 289 288 288 288 287 287 287 286 286 286 286 286 286 285 285 284 284 284 284 285 285 286 286 287 287 288 288 288 288 289 289 290 290 290 290 291 291 292 293 291 289 290 291 290 289 289 288 287 285 284 282 281 280 279 278 278 277 277 277 277 276 275 274 274 273 273 273 273 272
290 289 289 290 289 289 289 289 288 288 288 287 288 291 293 292 289 288 287 287 286 286 286 285 285 285 285 285 284 284 283 283 283 282 282 282 282 283 284 284 284 285 285 285 285 285 285 285 285 286 286 286 287 288 289 291 291 290 291 291 289 288 288 287 286 285 283 281 280 279 278 277 276 276 275 275 275 275 275 274 274 273 273 273 273 273
289 290 290 289 289 288 288 288 287 287 288 287 287 289 290 290 288 286 286 285 285 284 284 284 284 283 283 282 282 282 281 281 281 280 280 280 280 281 281 282 282 282 282 282 281 281 281 282 282 282 282 282 283 284 285 287 289 290 291 291 290 288 286 286 285 284 283 281 279 278 277 277 276 275 274 274 274 274 274 273 274 274 273 273 273 273
289 290 290 289 289 288 288 288 288 287 287 288 288 288 289 288 286 285 284 284 284 283 282 282 282 281 280 280 279 279 279 279 278 278 278 278 278 279 279 279 279 279 279 279 279 278 278 279 279 279 279 279 279 280 282 285 287 288 289 289 289 287 285 285 284 283 282 280 278 277 276 276 275 274 274 274 274 274 274 274 273 274 274 274 274 274
289 289 289 289 288 288 288 288 288 288 288 287 288 290 290 287 284 284 284 283 282 282 281 280 279 278 278 278 278 278 277 277 276 276 276 276 276 277 277 277 277 277 277 276 276 276 276 276 277 276 276 276 276 278 280 282 282 283 284 285 287 286 284 284 282 281 280 278 277 276 275 274 274 273 273 273 273 273 273 273 273 273 274 274 274 274
290 289 288 288 288 288 288 288 288 288 288 287 288 290 289 285 282 283 283 282 281 280 278 278 277 276 276 276 276 276 275 275 274 274 274 274 275 275 275 275 275 275 274 274 274 274 274 274 273 273 274 274 275 277 277 277 277 277 278 280 283 284 284 283 281 280 278 277 276 276 275 274 274 273 273 273 273 273 272 272 272 273 274 274 273 274
Wind_Speed
4 4 4 7 10 13 12 11 16 16 10 8 6 6 7 8 9 9 12 10 5 6 10 12 16 18 17 18 17 17 14 13 14 13 14 14 14 14 14 16 17 18 20 18 21 24 24 26 29 31 34 34 33 34 35 37 40 42 42 42 42 42 42 43 42 41 40 39 37 37 39 40 41 41 40 39 38 37 36 34 33 34 32 31 31 29
3 6 9 13 15 14 11 10 12 11 9 10 8 8 9 8 12 13 12 12 5 5 10 11 16 19 16 16 15 14 15 16 17 16 18 18 16 14 15 19 19 17 17 17 17 17 19 23 25 28 31 32 33 35 38 41 43 43 42 43 44 43 44 46 46 45 44 44 43 42 43 43 41 41 41 40 40 38 37 35 34 35 33 32 31 30
3 7 12 15 14 9 5 4 7 9 9 9 6 7 8 6 11 12 10 13 7 4 8 10 14 17 15 15 15 14 16 18 18 18 19 18 15 14 15 18 19 17 17 18 19 15 13 18 22 25 28 33 37 39 41 42 42 41 42 43 43 44 46 47 47 47 46 46 45 43 41 40 38 39 40 39 39 38 37 36 35 35 34 33 32 31
5 7 13 14 9 6 6 5 5 5 5 7 6 6 8 7 8 9 7 8 5 4 7 9 12 14 12 13 11 13 18 18 17 18 17 16 14 17 18 17 17 19 19 18 20 16 9 12 17 22 27 33 35 34 36 38 38 40 43 44 45 46 47 47 47 47 45 42 40 37 35 36 35 34 36 35 35 37 37 36 36 35 35 34 34 33
11 7 8 10 8 9 11 9 6 4 7 9 8 7 11 12 12 12 7 6 6 6 6 8 13 12 10 13 12 11 15 15 15 16 17 16 16 17 18 17 18 20 20 18 19 16 8 9 14 21 26 29 31 32 37 40 42 44 45 46 45 46 46 47 47 45 42 39 36 32 28 29 29 28 30 32 33 36 38 38 39 38 37 36 35 34
12 6 5 6 8 11 11 9 7 7 10 10 8 12 18 16 14 14 11 8 7 7 4 2 10 10 6 10 11 7 8 11 11 13 17 19 18 16 15 18 19 19 19 17 17 15 8 8 11 18 23 26 30 35 40 43 44 44 44 44 44 44 44 44 44 44 42 40 39 36 32 31 29 27 32 39 40 41 42 42 41 39 38 36 36 35
6 7 8 9 9 11 10 7 7 10 10 11 7 13 17 14 11 11 9 5 3 6 4 4 3 11 5 5 8 7 8 12 12 12 17 18 16 14 14 17 16 15 16 15 14 12 9 9 9 13 21 28 32 36 38 38 39 39 40 42 43 43 43 43 43 43 43 42 41 41 39 38 36 34 37 41 39 40 42 40 40 40 39 38 37 36
4 6 9 11 10 8 7 7 9 12 8 8 4 10 11 9 9 7 5 5 4 4 4 5 5 9 13 6 8 12 12 13 14 15 17 16 16 16 16 16 15 15 14 11 11 11 10 9 10 14 22 28 30 30 31 33 36 38 40 42 43 42 42 43 44 45 45 44 43 43 41 39 40 40 37 35 34 36 38 38 39 40 39 39 37 36
4 6 9 9 7 6 7 10 10 12 9 7 4 7 6 6 6 4 5 5 2 4 5 5 7 4 14 6 7 10 10 11 15 17 17 17 17 17 16 15 15 17 14 10 10 11 9 9 12 16 19 23 24 26 31 35 36 37 38 40 41 41 42 43 44 46 46 46 45 44 42 39 40 39 34 32 32 34 36 38 38 39 39 39 38 37
1 3 6 8 6 7 8 8 9 13 10 4 5 3 3 2 1 3 2 1 2 6 7 5 7 4 13 7 4 3 5 9 13 14 15 16 15 13 13 14 15 16 13 8 8 8 7 8 12 15 15 19 23 26 30 31 32 34 36 38 40 41 41 42 45 46 47 46 45 44 44 42 39 35 31 30 31 33 35 37 38 38 39 39 39 38
4 0 2 4 5 6 5 3 5 10 7 1 3 2 5 4 4 4 1 3 2 9 6 9 11 7 8 5 3 4 5 6 8 8 11 13 13 13 12 13 14 13 10 6 6 5 4 5 10 13 15 19 22 23 26 28 31 34 36 38 40 40 41 42 44 47 47 47 46 45 45 44 39 35 32 31 32 33 35 36 36 37 37 38 39 39
6 2 2 3 3 4 4 2 1 0 1 2 2 0 3 5 4 5 4 3 2 10 6 11 13 10 9 6 1 5 6 6 7 8 11 13 13 13 12 13 12 10 8 5 5 4 4 5 8 11 13 17 20 22 26 29 31 33 35 37 38 38 40 41 44 47 47 47 47 46 45 44 40 37 36 35 35 36 37 36 35 34 35 36 37 38
5 7 7 3 1 5 5 4 3 5 1 4 4 3 0 5 4 3 3 1 5 9 6 9 8 7 11 7 4 9 12 10 9 9 12 13 13 13 12 11 9 7 5 5 5 5 6 7 8 9 11 17 21 24 27 29 31 33 34 37 38 39 40 41 43 45 46 47 47 46 44 42 40 38 38 38 37 37 38 37 36 36 37 37 38 40
4 7 4 3 2 5 8 5 3 2 4 7 5 5 5 3 3 4 4 2 6 9 6 5 6 4 7 4 8 13 13 11 7 8 12 12 12 13 11 9 8 6 4 5 5 6 7 8 9 9 11 16 20 24 27 29 32 33 34 37 38 39 40 42 42 43 45 46 47 45 43 40 38 38 39 39 39 38 39 39 39 41 41 42 44 45
4 9 3 7 3 5 10 11 11 5 4 6 5 5 7 6 5 5 4 6 7 6 5 2 4 5 3 2 9 11 9 9 7 8 9 9 11 11 10 11 10 7 4 4 6 7 7 8 8 8 11 16 19 23 27 29 31 33 34 37 38 38 40 41 42 43 46 47 45 43 42 40 40 40 40 40 40 39 40 40 41 42 43 45 46 47
4 9 4 4 3 7 10 11 10 3 0 4 4 4 7 7 5 4 7 8 6 4 4 3 4 6 4 4 6 4 6 8 8 7 6 8 10 8 8 10 9 7 5 5 6 6 6 7 7 8 11 15 18 21 26 29 32 34 35 37 39 40 41 42 43 45 46 45 43 42 43 42 42 41 41 41 41 41 41 42 42 44 44 45 45 45
5 7 4 2 2 7 9 6 6 4 2 2 3 4 5 3 5 5 8 7 5 5 6 6 8 6 4 6 5 4 7 6 6 7 6 8 10 7 8 8 7 7 6 6 6 6 6 7 7 9 12 15 19 23 27 31 34 36 36 37 38 37 37 41 44 44 43 41 41 43 44 44 44 44 45 44 43 42 41 41 42 43 43 43 44 44
6 8 8 9 8 6 2 3 3 4 5 5 3 6 3 2 2 3 3 3 5 9 7 8 14 9 2 6 7 7 8 7 8 8 7 8 8 7 7 7 7 7 6 5 6 5 6 7 7 9 13 18 22 25 28 31 32 33 34 36 37 37 38 42 42 42 41 41 42 43 45 46 47 47 47 45 43 41 40 41 42 42 42 42 42 42
2 5 9 8 7 5 3 2 4 5 3 5 4 3 3 2 3 2 3 3 7 10 6 8 16 12 5 6 6 4 4 5 7 7 8 9 10 9 8 8 8 7 5 6 5 5 6 7 7 9 13 18 22 24 26 27 28 29 32 33 35 38 40 40 38 38 39 41 42 44 46 47 47 47 46 44 41 40 41 43 42 42 42 41 41 41
1 3 7 5 3 3 3 1 4 4 3 1 1 1 1 3 4 3 3 3 5 10 7 7 10 8 5 6 6 8 8 4 4 8 7 7 7 8 7 6 7 6 6 6 6 6 8 8 9 11 15 18 21 23 23 24 28 32 33 33 34 37 37 37 39 41 42 43 44 44 44 45 46 47 45 43 41 41 42 43 42 42 42 41 41 42
1 3 5 4 3 2 2 4 5 4 2 1 2 4 3 2 2 2 3 2 3 7 7 7 8 6 5 5 5 7 7 4 4 7 6 7 5 6 7 5 6 5 5 6 7 8 8 8 9 13 16 17 17 19 22 26 30 32 33 35 38 37 36 38 40 42 43 45 46 45 45 45 45 45 43 41 41 42 42 42 41 41 41 41 41 42
1 2 3 4 5 6 7 6 6 6 5 4 5 6 6 6 5 5 6 5 3 4 5 6 7 5 4 5 5 7 7 7 9 8 8 9 8 7 7 6 7 6 6 7 8 8 8 8 8 9 11 13 15 19 24 27 29 30 33 37 39 37 38 40 42 44 46 46 45 47 47 46 43 42 41 41 41 42 42 41 41 41 41 41 41 42
4 3 4 6 7 8 11 10 8 8 7 6 5 5 5 5 5 6 9 6 4 4 3 5 7 4 3 10 13 13 12 10 10 12 11 9 9 8 7 8 7 7 8 8 7 8 7 7 6 5 7 11 16 19 22 24 28 31 35 37 36 37 41 44 45 47 46 44 44 46 46 44 42 41 41 42 42 43 43 42 41 41 41 41 41 41
4 3 5 7 6 7 11 13 13 9 6 6 6 5 6 6 6 8 6 4 5 6 5 8 11 7 5 13 17 16 15 12 10 13 11 9 8 8 8 9 8 8 9 8 7 6 5 5 5 5 6 9 14 18 21 24 28 31 33 34 35 39 44 46 45 44 42 42 44 44 43 42 41 40 41 43 45 45 44 43 42 42 42 42 41 41
5 4 5 7 6 5 6 7 10 8 5 5 6 6 8 11 12 10 5 3 6 10 12 13 12 9 8 12 15 17 20 19 18 17 13 9 8 8 8 9 9 9 9 10 10 7 5 5 5 6 6 8 12 17 20 24 27 30 33 35 37 41 45 45 43 41 40 42 42 40 40 40 40 41 43 45 45 45 45 43 42 42 42 42 41 41
5 5 5 6 7 8 8 7 7 6 4 3 4 5 7 10 11 10 7 6 9 12 15 14 11 10 10 11 15 18 23 24 24 21 14 9 9 9 8 8 9 10 11 12 11 9 7 6 6 7 7 7 11 15 19 23 27 30 33 36 39 42 43 42 40 39 39 39 39 38 39 40 40 43 45 46 46 45 44 43 42 42 42 42 41 41
1 4 6 10 12 12 13 12 7 4 4 5 7 10 11 8 8 7 6 9 11 11 13 13 13 15 13 12 15 19 21 23 24 22 17 11 10 11 11 10 9 8 10 11 9 8 8 7 8 8 8 9 12 16 20 23 26 28 30 34 38 41 41 39 37 38 39 39 39 39 40 41 44 46 47 46 45 44 43 42 42 42 41 41 41 42
3 6 9 15 18 17 18 19 16 13 13 15 16 18 17 14 12 11 12 13 12 11 13 13 14 17 14 12 17 21 22 22 22 22 19 16 15 14 14 14 11 10 11 9 7 9 9 9 9 9 9 10 13 18 22 24 28 31 32 35 37 37 38 37 35 37 39 39 39 40 42 45 47 47 46 44 42 41 41 41 41 41 41 41 42 43
5 9 12 16 18 19 19 21 21 19 18 18 19 20 20 19 19 19 20 21 17 16 17 15 17 20 16 14 19 22 22 22 21 20 20 20 19 17 17 17 15 16 15 10 9 10 9 10 11 11 11 12 13 17 21 24 28 30 32 36 37 36 37 36 35 37 38 37 38 42 44 44 43 42 41 40 39 39 40 41 41 40 41 42 42 43
3 6 11 15 17 17 18 20 21 21 21 20 20 21 21 22 24 24 24 24 24 24 24 22 24 25 19 18 20 21 20 20 19 20 21 22 23 22 22 19 15 15 15 13 11 10 9 11 12 12 13 13 12 15 17 21 26 27 31 35 35 35 37 36 36 37 36 37 42 44 43 39 38 37 38 38 39 40 40 40 40 40 41 41 42 42
2 4 8 12 12 13 16 18 19 19 20 21 21 21 22 24 25 25 23 22 22 24 26 27 27 23 18 20 23 23 22 21 21 23 24 23 22 20 17 15 15 16 17 17 17 16 14 12 12 13 14 14 14 16 17 20 25 28 30 31 32 35 36 34 35 36 36 40 43 41 37 36 36 37 38 39 39 39 39 39 39 40 40 40 41 41
4 4 6 9 9 8 11 15 18 18 19 21 22 23 25 25 23 22 21 20 21 23 25 24 21 16 15 18 21 21 20 20 22 22 18 15 14 15 16 16 16 16 16 17 18 18 19 18 15 15 15 15 17 18 19 23 25 25 26 29 33 34 32 30 32 34 37 39 38 34 33 35 36 36 37 37 38 38 38 38 38 39 39 40 40 41
5 5 5 7 8 7 9 13 15 15 14 14 17 22 26 26 24 22 21 22 22 20 18 16 12 9 11 12 13 14 15 15 14 10 9 12 15 16 14 13 14 14 15 15 17 17 18 17 16 16 16 17 19 23 28 30 26 25 28 31 32 28 26 29 32 33 34 34 32 32 33 34 35 35 36 37 37 37 37 38 39 39 40 40 40 40
8 9 8 7 8 9 12 14 13 11 10 7 7 14 22 25 25 24 21 20 17 11 9 8 7 13 16 16 16 16 16 15 10 9 12 12 13 14 15 14 14 15 14 14 15 16 16 15 16 18 22 25 27 31 35 34 29 29 32 29 24 23 26 30 31 31 31 30 29 31 32 33 34 35 35 35 36 36 37 39 39 39 39 39 39 39
11 12 9 8 8 10 11 13 11 9 9 5 2 3 7 11 12 15 15 11 9 12 14 14 16 17 16 15 14 14 18 18 7 9 14 15 14 15 17 16 17 17 16 15 16 16 16 16 16 18 23 29 33 34 33 32 29 29 29 25 21 23 26 28 28 28 28 27 28 30 31 33 34 33 33 34 35 36 37 38 38 37 38 38 39 40
12 12 9 7 8 8 9 11 12 10 6 2 6 13 13 9 13 14 7 6 13 13 11 13 14 14 15 15 14 14 19 18 5 6 15 18 16 16 16 16 17 17 15 15 16 16 17 17 18 19 23 29 34 33 31 31 29 25 24 21 20 21 23 24 24 24 25 26 27 30 32 33 33 33 33 35 35 36 37 37 37 37 37 37 37 37
10 9 8 7 7 7 10 13 14 14 11 3 4 9 8 4 7 8 3 5 12 12 10 12 13 14 15 14 14 15 19 15 6 5 15 20 18 16 15 14 16 16 15 16 17 19 22 24 25 26 28 31 33 32 32 33 28 18 13 11 12 14 16 18 20 21 23 25 27 30 32 33 34 34 34 35 36 36 36 36 36 36 36 36 35 35
2 5 4 5 4 5 10 11 10 12 9 2 3 5 4 5 9 8 7 2 8 12 11 12 14 16 16 14 15 16 16 13 9 9 15 19 18 17 17 16 16 16 16 17 19 22 26 29 29 30 31 30 32 33 32 30 24 14 6 4 6 10 13 15 18 20 22 24 26 28 30 32 33 34 34 36 37 36 36 35 35 35 36 37 36 35
5 2 2 5 5 6 9 9 7 7 2 5 7 8 7 11 12 6 6 4 7 12 11 12 14 14 15 15 15 15 13 12 11 11 13 17 16 15 17 18 17 18 21 23 22 22 25 29 30 32 31 29 31 35 33 25 18 11 6 4 6 10 13 15 17 18 20 21 23 25 27 29 30 31 32 33 33 33 33 33 33 34 35 35 35 34
7 4 3 5 7 8 9 9 7 4 1 6 10 10 11 13 9 2 4 2 8 9 8 11 12 11 11 11 11 11 10 9 12 14 15 15 14 13 14 15 17 18 21 26 28 28 28 29 27 28 28 27 30 37 35 26 17 10 6 4 7 10 12 12 13 15 17 19 21 24 26 28 29 30 31 31 30 29 31 32 32 33 34 34 34 34
3 3 3 4 6 7 8 8 6 2 2 6 11 13 14 11 2 2 4 5 7 6 6 9 9 9 9 8 7 7 6 7 10 15 16 15 15 16 15 15 18 21 21 24 29 30 30 29 27 26 27 28 32 37 37 29 22 17 12 7 8 11 10 9 10 12 14 17 19 22 25 27 29 30 30 30 30 30 31 32 33 35 36 34 33 33
2 2 3 3 4 4 4 5 7 5 1 9 14 13 11 6 2 3 3 1 3 5 5 5 6 7 8 7 6 7 8 9 10 14 15 15 16 18 17 17 19 22 23 24 26 27 27 27 28 29 30 32 34 36 37 29 23 22 18 12 13 15 11 8 8 10 12 15 18 21 24 26 27 28 29 29 31 31 31 32 33 35 35 33 32 32
3 4 4 4 3 5 6 7 8 7 3 11 14 10 6 2 4 6 3 2 2 4 4 4 5 6 7 8 9 9 10 11 11 12 13 15 15 16 17 17 16 17 21 23 25 27 27 24 25 28 31 33 34 37 37 29 21 21 18 15 17 16 9 7 7 8 11 14 17 20 23 24 25 27 28 29 31 31 31 30 31 33 34 33 32 31
3 2 5 4 3 4 5 6 5 6 7 9 7 4 4 2 3 2 1 3 3 3 2 4 5 6 7 9 11 11 11 12 11 11 13 14 14 15 15 15 15 16 18 20 24 28 28 24 24 28 32 33 33 34 35 29 22 19 17 18 20 17 10 8 7 7 10 13 16 19 22 24 25 27 28 29 31 30 29 30 31 32 32 32 32 30
4 4 4 4 4 4 5 7 8 8 9 9 5 3 5 5 4 4 3 4 3 3 3 3 6 8 8 8 11 12 11 11 12 11 12 13 14 14 14 15 16 17 19 22 24 27 27 25 26 28 30 32 32 31 32 30 23 19 19 21 21 17 13 10 8 9 10 13 15 18 20 22 24 27 29 31 33 32 31 31 31 30 30 31 31 30
6 5 3 2 5 7 7 9 9 8 9 11 8 3 4 5 4 4 4 4 4 4 4 4 6 8 8 8 9 10 10 11 12 12 12 13 14 14 13 14 16 17 19 20 23 26 27 27 27 26 26 31 33 31 30 30 24 21 23 25 21 17 15 12 10 11 12 14 16 18 21 22 23 26 28 30 33 33 33 34 33 31 30 30 30 30
6 6 5 5 6 6 6 8 8 7 11 13 9 5 5 5 4 5 4 4 5 5 5 5 6 7 7 7 8 9 11 12 12 12 12 12 14 15 13 13 14 15 17 19 22 26 26 23 22 23 25 29 33 32 30 31 28 26 28 29 24 19 16 13 13 13 14 16 17 19 22 24 24 25 27 29 31 31 31 33 33 31 30 30 29 28
4 4 4 6 8 7 8 12 11 11 14 14 10 7 6 5 5 5 6 5 5 5 5 5 5 6 6 7 7 8 11 13 12 12 13 12 13 13 13 13 13 15 19 22 24 25 24 21 20 22 24 28 32 33 32 33 32 29 28 29 27 21 17 16 16 17 18 19 19 21 24 25 26 28 29 30 31 31 32 34 35 34 35 37 37 34
2 2 4 6 7 7 9 11 11 11 13 12 10 9 7 6 6 6 6 5 5 5 5 5 5 5 6 8 7 7 10 13 12 11 12 13 14 13 12 13 16 18 21 22 23 24 23 22 22 23 25 29 32 34 32 32 31 29 27 27 27 22 19 19 19 19 20 20 21 23 24 25 26 28 30 30 29 30 31 33 35 35 35 38 41 41
3 7 8 5 4 8 10 10 9 7 9 10 9 8 8 6 5 5 6 5 5 4 4 6 7 7 8 9 8 7 9 12 13 12 12 13 14 14 14 14 16 19 22 23 24 26 24 22 23 24 26 30 32 31 31 32 33 32 29 28 26 23 22 22 20 19 21 22 23 24 25 25 25 26 28 28 27 26 26 27 30 30 28 30 34 36
7 10 10 6 7 11 12 11 8 6 9 13 8 6 6 3 2 5 6 5 4 4 3 5 8 9 10 10 8 8 10 12 14 14 13 14 15 16 18 18 15 16 21 23 23 23 23 24 26 27 29 31 31 30 30 34 38 37 33 30 28 26 25 25 22 19 20 22 24 26 27 26 25 26 26 26 25 24 23 22 24 24 23 23 26 28
Wind_Direction
158 147 167 200 215 227 225 206 220 240 255 266 264 249 244 255 263 253 261 264 218 246 248 231 248 252 249 251 252 263 267 263 262 259 255 253 253 254 253 255 255 255 258 258 257 252 243 234 228 224 221 219 219 218 214 210 208 207 203 199 197 197 195 193 193 194 194 194 194 196 201 205 207 208 209 212 214 214 215 213 212 212 208 204 203 202
146 184 209 215 217 226 228 214 225 242 254 258 252 263 264 254 266 261 261 273 229 216 258 242 254 260 251 252 252 256 265 265 262 259 257 253 248 250 252 255 255 254 262 267 264 250 234 230 223 218 215 211 211 212 210 209 208 206 201 199 197 194 193 194 194 194 195 197 198 198 202 204 205 206 208 210 212 214 215 214 214 213 210 206 204 203
194 215 223 224 224 237 250 206 221 237 238 245 245 262 268 255 273 270 251 262 242 201 263 258 258 264 256 252 249 249 255 257 256 254 255 256 251 250 248 251 256 257 261 265 265 256 226 219 216 211 209 208 210 211 208 209 206 201 199 198 196 194 194 195 195 196 198 200 201 201 202 203 203 206 209 211 213 213 214 214 214 214 212 207 206 205
226 229 227 228 226 236 255 230 219 258 251 226 227 248 262 253 264 267 244 257 250 206 262 273 269 269 266 261 249 243 248 253 258 258 258 258 249 248 248 249 256 258 258 258 261 262 227 208 209 204 206 207 209 208 205 204 201 198 199 198 195 195 194 194 196 197 198 198 198 200 202 202 203 206 208 210 213 213 213 213 214 215 213 209 208 207
243 233 217 215 206 212 236 240 219 259 266 229 209 222 250 248 244 254 269 302 295 257 260 287 286 274 248 252 251 239 246 253 259 260 263 261 249 248 253 255 255 255 258 256 259 260 227 202 207 204 207 206 204 204 203 201 199 199 199 197 195 195 194 194 195 195 195 193 192 193 195 197 200 203 204 206 211 211 211 213 213 214 213 210 209 208
252 227 174 179 197 207 221 234 207 206 258 256 202 211 239 248 250 259 281 314 310 279 267 294 295 285 205 222 249 245 251 256 254 254 258 259 255 251 254 255 252 253 258 257 259 261 237 208 208 206 206 203 202 205 205 202 200 199 197 195 194 193 193 193 193 192 192 191 190 189 187 189 193 197 202 206 208 207 208 211 212 213 213 212 210 208
246 209 186 191 200 203 208 231 210 191 244 272 214 209 233 246 254 258 270 288 263 267 277 117 278 286 254 212 246 245 242 250 252 250 250 254 257 253 250 253 253 253 256 256 257 256 239 213 200 205 205 202 204 207 204 201 198 197 194 193 192 192 192 192 192 191 191 191 191 192 193 195 196 200 207 210 209 208 208 210 211 212 213 212 210 209
197 196 206 209 201 194 198 228 215 183 216 268 209 193 215 234 246 231 216 229 230 282 286 152 160 273 280 242 213 227 231 243 251 250 249 252 252 250 249 254 257 255 253 253 255 249 234 215 201 208 208 204 205 204 198 196 195 195 193 192 191 191 191 192 192 192 193 193 194 196 198 201 203 207 211 212 210 211 210 209 211 213 213 213 212 212
144 191 216 203 196 201 203 221 201 168 207 255 157 154 177 203 222 174 180 224 276 338 287 198 144 254 283 259 186 219 225 230 243 245 248 249 247 249 250 255 258 260 255 241 245 245 228 214 211 214 210 203 203 199 194 195 194 193 191 190 190 190 191 192 192 194 195 197 198 199 200 204 208 211 213 212 210 211 210 210 211 212 212 212 212 213
133 200 198 167 181 217 219 225 186 170 208 232 126 111 69 93 80 88 188 204 31 307 265 199 150 227 284 285 144 200 221 227 238 240 248 250 252 257 258 260 260 262 262 240 238 247 225 216 215 209 201 197 198 197 195 193 191 189 189 188 189 191 192 192 194 195 197 199 200 201 202 205 208 209 210 211 210 209 210 210 210 211 211 211 211 212
240 48 137 167 195 204 195 202 180 183 210 128 114 333 13 16 22 48 352 72 30 280 247 175 173 195 275 287 148 183 214 232 240 246 259 259 260 261 258 260 258 261 269 249 232 234 205 200 200 193 189 190 193 193 191 190 189 188 188 188 189 191 192 193 195 197 199 200 201 204 206 207 207 205 206 207 207 207 208 209 210 210 210 211 211 211
258 238 221 223 182 140 133 191 251 336 196 118 141 30 3 328 2 26 350 57 220 262 226 178 180 186 235 268 255 238 245 235 223 232 255 259 260 259 253 254 257 268 275 244 210 190 158 161 180 184 182 181 184 187 188 188 187 187 188 188 190 192 193 195 196 198 200 201 204 207 208 209 208 206 206 207 207 208 208 209 209 209 210 211 211 211
276 229 221 237 171 152 159 213 308 356 91 139 129 129 275 302 338 344 303 164 221 256 235 188 178 204 240 257 273 272 274 259 227 217 236 248 257 259 256 258 268 282 257 215 195 181 179 183 183 184 180 179 184 187 186 186 186 188 189 190 191 193 195 196 198 200 202 204 207 208 209 210 209 209 210 211 211 211 211 210 209 208 209 209 210 211
292 267 207 147 275 189 164 185 243 280 191 172 159 155 170 214 252 247 260 269 253 265 259 185 166 245 278 269 226 237 257 261 239 223 232 241 255 262 268 278 288 295 255 208 201 197 198 196 190 188 187 185 187 187 186 186 187 188 190 192 194 196 197 198 200 202 204 207 209 210 211 212 211 211 213 214 214 214 213 212 211 211 210 210 211 211
268 289 206 160 236 195 178 206 215 196 179 194 171 150 183 194 191 202 222 248 252 272 292 207 173 219 248 251 226 220 243 266 258 245 242 244 251 255 266 273 282 297 287 235 221 216 210 201 194 192 193 192 190 187 187 188 189 190 192 194 196 197 198 199 202 204 206 209 211 211 213 213 214 215 216 217 217 216 215 214 214 214 213 213 214 213
230 274 247 177 184 165 185 220 215 161 344 236 136 132 220 208 175 213 239 240 253 303 293 239 218 225 231 271 266 261 281 277 269 271 272 269 267 269 274 275 284 296 276 246 235 232 220 203 195 197 197 196 192 189 190 191 192 193 195 196 198 200 200 201 203 206 208 210 210 212 214 215 215 216 217 218 218 218 218 217 217 217 216 216 215 215
245 272 277 237 209 187 196 207 190 171 203 221 133 184 232 165 151 228 259 259 266 273 259 249 259 274 301 285 284 339 329 312 314 323 317 290 286 291 288 283 285 276 258 248 246 239 222 207 203 202 199 196 194 195 197 197 197 197 197 198 200 201 202 204 207 208 209 210 211 213 214 215 216 217 218 219 219 219 218 219 219 219 219 217 216 215
254 271 269 266 269 257 205 139 205 212 158 137 183 220 216 81 141 201 247 266 255 254 253 255 263 271 290 276 297 349 349 333 334 349 351 327 323 323 307 294 277 260 252 258 260 259 246 227 215 205 204 203 201 201 203 203 202 202 202 202 201 202 205 208 209 209 210 210 212 214 215 216 217 218 220 220 220 219 218 219 220 219 219 218 217 215
265 273 271 278 291 310 25 76 270 277 184 163 205 209 148 183 226 186 188 218 237 248 246 241 258 265 237 244 281 296 285 304 331 14 18 354 356 354 331 310 298 293 287 273 256 254 250 236 228 215 210 210 209 209 208 206 205 207 209 209 207 208 209 210 210 211 213 213 214 216 217 218 218 219 220 220 220 219 219 220 219 218 219 218 216 215
224 250 260 278 316 346 12 224 231 264 279 262 259 279 169 192 194 187 199 187 222 248 254 238 247 262 246 220 218 226 219 233 343 17 5 337 351 348 324 301 294 294 290 279 260 248 240 231 230 222 217 214 212 213 211 207 207 209 211 212 213 214 213 212 212 213 214 215 217 218 219 219 220 220 221 220 219 219 220 221 220 219 219 217 216 215
220 260 259 277 295 304 284 225 199 205 232 215 227 248 252 230 234 262 238 173 202 244 258 253 245 251 259 227 212 233 219 213 336 353 318 295 305 306 298 275 261 259 256 257 253 249 243 239 236 229 224 219 214 214 212 210 210 210 211 213 215 216 214 214 215 214 215 217 217 219 220 221 221 220 220 220 219 220 221 221 221 220 218 217 217 215
194 272 278 296 282 271 270 241 196 202 223 210 215 235 237 232 245 268 251 217 205 236 246 260 260 255 274 270 267 280 270 276 302 295 276 276 269 271 278 255 242 246 242 236 234 237 238 237 238 234 228 218 212 214 213 212 211 210 212 216 217 216 216 216 216 216 217 217 217 218 219 220 221 219 219 219 220 221 221 221 221 220 218 217 217 215
172 194 242 258 253 259 277 277 246 228 230 231 227 224 231 226 211 235 247 236 234 266 279 277 264 244 281 283 282 286 283 282 286 276 272 275 268 276 287 268 253 250 249 243 235 234 235 233 230 222 221 219 219 219 215 213 212 213 216 217 217 218 220 220 220 219 218 217 218 219 219 219 219 218 217 218 219 220 221 221 220 219 218 217 216 214
178 168 225 243 247 252 267 282 279 254 221 240 247 218 218 226 221 231 239 222 237 260 269 271 261 236 243 268 273 281 281 277 272 268 265 264 269 279 280 278 275 262 261 261 254 250 253 250 233 209 211 219 225 225 221 217 216 217 220 219 218 221 223 223 222 221 218 217 219 219 218 218 217 216 216 217 218 219 219 219 219 218 218 216 215 213
233 200 206 240 255 252 250 270 274 254 213 223 233 211 222 233 238 249 252 216 237 243 240 251 258 243 233 254 268 281 282 278 271 264 254 247 259 266 265 274 280 276 276 272 268 273 270 251 240 230 224 217 220 224 226 225 222 220 221 221 221 224 226 225 222 221 219 218 219 218 217 217 215 215 216 217 218 218 218 217 216 216 215 213 212 211
246 215 191 229 240 240 243 240 244 245 223 215 215 219 234 232 235 252 263 251 247 241 237 244 258 256 246 252 264 270 272 274 274 270 262 247 245 253 258 263 269 274 275 271 275 286 283 264 248 243 241 231 228 229 230 231 229 226 224 224 224 226 228 226 222 220 219 218 218 217 217 216 214 215 217 217 217 217 216 215 213 213 212 210 209 208
240 236 212 228 235 240 248 248 246 252 251 254 256 254 254 244 234 249 260 251 256 258 249 246 256 260 254 252 259 261 264 269 272 274 276 270 260 263 265 262 256 253 259 267 283 293 285 272 255 245 243 243 245 244 240 236 235 233 232 231 230 229 228 226 221 219 218 217 217 217 216 215 215 217 218 217 216 215 213 212 211 210 209 208 207 205
221 252 236 234 238 241 248 254 255 254 254 257 261 263 262 256 247 249 252 251 259 270 260 251 256 262 258 252 257 261 264 267 271 278 282 279 274 271 272 273 269 262 265 274 283 277 267 258 253 247 243 244 245 245 242 238 236 236 237 238 238 233 228 224 219 217 217 216 216 217 217 217 218 218 217 216 215 213 210 209 208 207 206 205 204 203
244 251 244 243 243 240 243 250 252 252 254 253 254 258 259 257 253 251 253 254 253 255 258 255 256 259 256 248 250 255 261 265 270 277 280 281 280 278 278 279 278 278 281 281 268 260 251 248 251 249 245 243 239 241 241 238 237 236 236 240 240 235 230 224 217 216 216 215 217 219 219 219 218 217 216 214 212 210 208 207 205 204 204 203 202 203
263 252 250 253 255 248 242 244 245 247 251 250 249 250 250 253 253 251 252 255 254 256 261 262 258 257 256 252 250 252 258 266 272 275 276 278 280 281 285 291 298 304 313 319 306 291 273 260 258 258 256 252 245 242 241 238 238 238 237 240 239 235 231 223 215 215 214 214 218 220 219 217 215 213 212 210 209 208 205 203 202 201 201 201 201 200
278 275 272 270 267 257 249 247 244 242 245 248 249 248 248 249 250 251 252 254 256 258 260 260 260 259 257 256 256 256 257 262 267 270 273 278 285 298 317 340 355 354 353 351 344 337 328 308 287 274 269 264 259 252 243 241 244 243 241 240 239 236 232 222 215 215 214 216 219 219 215 212 210 208 208 207 206 204 202 200 199 198 198 198 197 198
296 293 288 279 270 258 251 249 250 250 248 247 247 246 246 245 245 247 247 245 247 252 255 258 260 264 267 266 265 267 269 269 271 276 287 307 333 358 13 19 16 7 1 356 353 352 349 341 327 308 290 276 271 268 262 257 252 246 242 242 241 238 231 221 217 216 216 218 219 215 210 207 205 203 203 203 202 201 199 198 197 196 196 195 195 195
265 270 283 276 273 278 268 263 266 263 251 244 239 238 239 240 242 244 244 245 246 249 257 262 267 298 327 334 333 326 321 315 313 327 0 11 16 21 19 15 9 3 358 352 349 349 349 348 344 332 318 302 290 284 280 275 265 252 248 247 243 237 226 219 218 218 218 219 215 210 207 204 200 200 200 199 198 197 195 195 195 195 195 194 193 193
257 261 270 273 278 285 287 290 288 269 258 254 225 229 238 243 246 248 252 257 264 283 312 328 359 12 11 10 5 353 338 329 343 43 54 37 20 9 2 2 1 355 352 348 345 345 343 342 342 338 335 329 316 303 294 290 283 270 262 255 242 230 221 217 216 216 218 216 212 208 204 200 198 197 197 196 194 193 193 193 194 194 193 192 191 191
264 267 267 268 272 275 282 286 273 258 265 266 97 7 290 270 278 283 276 284 331 357 7 19 23 18 11 3 360 353 334 323 338 69 51 32 20 5 354 351 350 348 346 343 340 338 336 337 337 336 336 335 330 322 310 302 297 286 275 262 242 227 219 213 212 214 214 212 208 205 201 198 196 194 193 192 191 191 191 192 192 191 191 191 191 192
248 258 259 256 260 269 272 263 257 267 276 189 69 27 11 3 358 347 332 21 24 9 9 23 18 11 8 0 357 353 337 322 303 79 38 21 11 2 352 345 343 342 339 337 335 332 330 329 329 329 330 332 334 333 326 316 309 295 278 263 242 226 215 209 209 210 209 206 204 202 199 196 193 191 190 189 188 189 190 190 190 190 189 190 191 192
238 248 261 258 243 247 259 256 260 272 268 225 48 15 12 359 335 321 274 60 32 10 4 17 12 8 8 0 354 350 340 328 310 8 15 9 1 355 349 341 336 334 332 330 328 326 325 325 327 328 329 331 333 335 334 331 325 307 278 259 238 223 212 204 206 207 205 204 203 201 199 196 192 189 188 187 187 189 190 189 189 189 187 187 188 190
256 241 264 274 250 257 271 271 274 271 266 308 336 308 324 294 274 260 229 178 35 13 3 11 12 7 2 356 354 352 345 342 338 342 354 354 350 347 343 337 335 332 330 328 327 327 327 327 328 328 329 331 331 333 337 337 334 330 318 274 229 214 205 202 207 208 205 205 204 201 198 196 193 190 188 187 188 189 188 188 187 187 187 187 188 189
346 276 257 281 281 288 282 279 287 277 285 22 327 305 326 308 292 279 220 183 41 14 359 10 12 6 360 352 352 356 353 346 333 328 340 343 340 341 337 331 331 329 326 325 324 324 324 324 325 327 330 331 330 331 334 334 331 336 334 285 231 209 207 211 212 208 206 206 204 201 198 196 194 192 189 189 190 188 186 185 185 186 187 187 188 188
350 342 325 292 281 288 286 278 283 280 66 5 332 335 333 307 297 307 243 255 30 14 359 9 4 359 1 352 349 357 354 335 319 317 326 328 324 327 326 321 322 323 322 323 323 322 322 322 324 327 329 328 327 328 329 327 322 319 308 267 235 225 226 227 220 212 210 207 203 200 198 196 195 194 192 190 189 187 185 184 184 183 185 186 187 186
337 325 299 270 270 285 285 280 284 268 96 7 345 345 339 325 350 74 284 313 9 358 355 8 354 346 351 343 339 342 324 304 302 304 311 316 317 319 318 314 314 314 313 316 318 320 322 321 322 324 322 322 326 327 327 324 317 312 313 303 274 269 266 252 231 219 212 206 201 199 197 196 196 195 194 191 187 184 184 185 184 183 183 184 184 183
312 295 270 259 278 294 288 290 288 264 59 18 353 344 355 5 350 313 307 317 342 325 340 357 338 330 329 319 316 310 295 293 296 296 304 313 314 315 316 316 316 314 314 316 317 319 321 320 321 323 321 323 326 326 325 323 313 311 317 312 302 303 300 276 245 223 208 201 198 197 195 196 197 196 193 191 186 183 182 183 184 184 182 182 182 181
300 299 287 267 277 288 276 274 275 265 331 5 351 344 18 50 272 296 319 178 252 303 322 328 321 320 316 310 307 303 301 303 301 300 307 311 311 313 313 314 315 314 315 318 319 322 324 321 320 321 320 321 323 323 323 320 309 309 313 306 307 316 311 278 256 225 208 200 195 195 195 195 196 195 192 189 186 183 181 181 182 182 181 181 180 178
267 252 267 269 280 283 262 257 273 296 324 342 342 329 321 275 239 261 261 226 239 257 271 299 305 300 302 306 305 304 305 304 303 308 311 309 311 313 310 310 313 313 314 315 317 321 324 322 319 319 317 317 319 320 321 318 308 304 305 301 305 309 300 279 259 223 212 203 195 195 195 194 194 194 191 188 185 182 180 179 180 180 181 181 179 178
215 198 244 276 276 254 241 261 288 309 311 309 307 281 263 242 190 168 200 233 243 236 237 275 295 295 300 303 302 303 303 304 309 314 312 307 307 308 307 310 311 311 312 314 316 321 323 320 317 316 314 315 318 320 320 318 310 300 299 303 305 301 292 280 255 228 217 207 200 198 195 193 193 193 191 189 186 183 181 180 179 180 182 182 182 181
236 243 263 273 260 258 253 257 273 289 287 287 292 270 225 214 188 173 190 230 256 256 252 260 276 287 298 302 301 300 300 304 308 307 304 303 302 302 303 304 305 308 310 312 315 319 321 319 318 317 315 315 316 318 318 317 310 299 299 304 304 295 286 272 248 234 222 209 204 200 195 192 192 192 192 190 188 188 186 183 182 183 184 185 186 186
248 237 235 242 250 262 264 257 261 271 275 280 286 268 234 219 194 180 201 236 252 257 261 267 273 284 294 296 295 295 296 301 305 303 304 304 300 300 302 300 302 307 308 309 313 317 319 319 317 316 314 311 311 314 315 313 308 303 303 304 300 289 277 261 241 232 223 213 206 200 196 194 192 191 192 191 190 190 189 188 188 186 186 188 189 190
242 177 189 236 238 236 253 266 269 267 268 275 277 262 237 208 193 207 226 230 235 251 261 268 276 287 291 288 288 293 294 295 297 299 304 305 299 298 299 298 301 304 304 306 311 315 317 316 312 311 310 306 307 311 311 307 305 305 305 304 297 284 268 252 238 229 223 216 209 203 200 198 195 193 193 194 194 193 192 192 192 192 194 195 192 190
235 209 223 240 248 256 263 267 270 273 273 269 258 243 223 195 197 232 247 234 230 253 272 278 279 283 288 287 287 287 285 286 290 295 298 298 296 295 295 298 303 303 301 305 310 312 311 308 305 306 304 300 302 306 304 302 303 307 309 307 299 283 262 251 240 227 220 214 208 205 203 201 200 197 196 196 199 200 200 198 198 200 204 204 200 197
194 244 247 239 249 265 262 251 247 260 275 273 253 225 212 197 195 240 262 257 246 252 271 286 288 286 282 281 285 287 284 285 291 295 294 290 289 291 294 299 303 301 301 306 311 310 307 304 304 303 298 295 297 300 300 300 302 303 306 308 302 285 265 253 240 227 218 211 206 205 202 200 201 200 198 198 201 203 206 208 207 208 213 214 211 208
209 235 245 243 244 253 259 255 239 227 259 274 265 211 205 227 264 261 259 260 265 267 269 280 287 290 287 280 276 278 285 289 293 295 294 289 287 290 295 297 298 297 300 305 307 306 306 305 304 301 295 294 296 297 297 298 297 295 296 300 298 287 269 254 240 229 220 213 209 207 203 200 201 200 199 201 201 200 203 207 211 215 220 220 217 214